Regional Weather Roundup
Issued by NWS

Home | Current Version | Previous Version | Graphics & Text | Print | Product List | Glossary On
Versions: 1 2 3 4 5 6 7 8 9 10 11 12 13 14 15 16 17 18 19 20 21 22 23 24 25 26 27 28 29 30 31 32 33 34 35 36 37 38 39 40 41 42 43 44 45 46 47 48 49 50
000
ASUS43 KFSD 251202
RWRSD

WEATHER ROUNDUP FOR SOUTH DAKOTA
NATIONAL WEATHER SERVICE SIOUX FALLS SD
700 AM CDT SAT OCT 25 2014

NOTE: "FAIR" INDICATES FEW OR NO CLOUDS BELOW 12,000 FEET WITH NO
SIGNIFICANT WEATHER AND/OR OBSTRUCTIONS TO VISIBILITY.


SDZ001>005-009-010-012>017-251300-
NORTHWEST AND NORTH CENTRAL SOUTH DAKOTA

CITY           SKY/WX    TMP DP  RH WIND       PRES   REMARKS
BUFFALO          N/A     39  30  70 SW3       30.08R
FAITH            N/A     46  31  55 N6        30.14R
MOBRIDGE       CLEAR     39  33  79 N3        30.11R
$$

SDZ012>016-024>037-041>051-057-063-072>074-251300-
SOUTHWEST AND SOUTH CENTRAL SOUTH DAKOTA

CITY           SKY/WX    TMP DP  RH WIND       PRES   REMARKS
RAPID CTY ARPT CLEAR     36  29  75 W6        30.16R
PIERRE         CLEAR     43  35  73 W3        30.13R
CUSTER         CLEAR     33  28  81 N5        30.20R WCI  29
ELLSWORTH AFB  CLEAR     38  31  75 W5        30.16R
PHILIP         CLEAR     33  30  88 W6        30.15R WCI  28
PINE RIDGE     PTCLDY    27  26  96 E3        30.17R
SPEARFISH      FAIR      39  30  70 S5        30.15F
WINNER         FAIR      44  34  67 W3        30.14R
$$

SDZ004>011-016>023-039-040-251300-
NORTHEAST SOUTH DAKOTA

CITY           SKY/WX    TMP DP  RH WIND       PRES   REMARKS
ABERDEEN       PTCLDY    42  33  70 W5        30.11R
WATERTOWN      MOCLDY    47  38  71 NW7       30.10R
SISSETON         N/A     52  33  48 N10       30.07R
$$

SDZ017-020-022-023-036>040-048>070-251300-
SOUTHEAST SOUTH DAKOTA

CITY           SKY/WX    TMP DP  RH WIND       PRES   REMARKS
SIOUX FALLS    CLEAR     47  39  74 NW3       30.10R
HURON          MOCLDY    44  37  76 N6        30.10S
CHAMBERLAIN    CLEAR     39  35  85 W3        30.13R
MITCHELL       CLEAR     43  38  82 W5        30.12R
YANKTON        CLEAR     43  37  81 NW6       30.12R
$$

ABBREVIATIONS USED IN REMARKS
   TC - TEMPERATURE IN CELSIUS
  WCI - WIND CHILL INDEX
   HX - HEAT INDEX
  VSB - VISIBILITY




USA.gov is the U.S. government's official web portal to all federal, state and local government web resources and services.